Theta_e
345 348 349 350 351 351 349 345 347 348 346 348 349 350 350 351 350 350 350 351 349 351 352 350 346 346 346 347 348 350 350 349 349 350 350 349 345 347 349 348 348 344 348
345 348 348 350 350 348 348 348 347 350 348 349 350 350 350 350 350 350 351 352 349 350 352 350 348 347 351 350 349 350 350 349 348 348 348 349 346 349 349 349 346 346 348
347 348 350 349 344 349 350 348 350 348 350 349 350 349 350 351 351 350 351 349 349 350 351 351 350 350 350 348 349 349 349 347 346 345 345 346 345 348 350 349 348 347 348
346 347 346 340 350 351 349 348 349 349 350 350 350 350 350 350 351 351 351 352 351 351 352 351 349 348 348 348 348 346 342 346 346 346 346 346 349 347 345 347 348 348 347
347 346 338 349 350 348 348 348 349 350 350 350 350 350 350 350 351 352 352 352 352 351 352 351 348 348 348 347 347 347 347 348 342 344 345 347 344 347 346 347 347 348 348
348 340 348 350 350 350 349 350 348 349 349 350 351 350 351 352 352 352 352 352 352 352 352 351 349 348 351 349 349 347 349 343 343 344 344 343 348 348 344 346 344 346 346
348 341 348 349 350 349 348 350 350 350 350 348 349 351 351 352 352 353 352 353 352 352 351 351 349 348 344 345 349 348 342 342 339 341 344 346 343 348 344 344 343 344 345
347 344 348 349 350 351 350 349 350 350 350 350 351 350 351 352 351 352 352 353 352 351 351 346 342 343 344 343 343 340 334 336 339 342 345 341 345 344 347 345 344 344 343
347 343 347 349 351 350 350 350 350 350 350 350 349 349 349 351 352 352 351 347 352 351 346 343 343 343 346 345 347 346 339 334 335 342 342 347 346 347 345 345 344 344 344
349 348 346 349 350 348 349 350 350 350 350 350 350 351 351 351 352 349 348 350 352 351 346 342 344 344 344 343 343 342 338 339 340 334 344 345 339 348 345 346 344 344 343
349 348 346 348 348 346 349 350 350 350 349 350 351 350 348 350 348 348 350 351 351 350 341 342 344 346 345 344 344 346 341 334 336 338 345 345 333 342 339 335 334 336 336
347 347 347 346 345 345 348 342 347 349 343 347 347 345 348 347 348 349 350 350 346 344 337 338 341 344 345 343 346 344 344 338 338 336 337 334 337 343 339 334 332 332 332
344 345 346 345 342 341 342 341 344 344 344 345 345 345 344 344 345 344 344 340 340 340 338 339 340 341 343 344 345 345 345 343 335 338 337 343 337 342 345 339 335 334 336
344 344 345 345 340 340 343 344 344 343 345 346 346 346 343 342 343 344 344 344 344 343 342 342 344 344 346 345 344 345 345 340 331 335 334 336 336 333 332 333 334 334 336
346 348 345 342 340 339 344 345 345 345 346 346 341 342 341 341 342 345 345 344 343 342 343 345 346 343 343 342 343 344 343 333 331 328 329 332 336 334 334 335 334 337 341
347 348 345 343 344 344 345 345 346 346 347 346 346 343 341 341 342 344 344 345 346 343 344 345 346 344 342 341 341 342 342 335 336 334 332 332 332 333 334 335 335 335 336
348 347 347 345 348 347 347 346 346 346 346 346 345 344 345 345 341 344 345 345 343 345 345 346 346 343 343 342 342 343 341 340 339 339 338 338 335 332 331 331 331 331 330
348 347 348 347 346 346 347 348 347 345 346 347 346 346 346 345 345 345 345 345 346 345 345 345 345 345 343 343 343 343 343 343 342 342 344 343 342 334 334 332 331 331 330
348 348 348 348 347 345 345 345 346 345 346 347 343 346 345 347 345 346 345 345 344 347 344 344 345 345 344 344 344 344 344 343 343 343 344 345 346 345 339 342 338 334 334
348 346 349 346 345 344 346 346 346 346 346 347 346 346 344 345 344 345 344 345 347 346 346 345 344 345 344 344 344 344 343 344 344 343 343 344 344 344 345 344 345 345 343
348 348 347 344 344 343 347 347 346 346 347 346 346 346 348 346 346 347 345 347 346 346 346 345 344 345 345 344 343 344 343 344 344 344 344 343 344 343 344 345 345 344 346
347 348 348 347 347 346 345 346 346 346 346 347 346 346 346 346 344 347 343 345 344 346 346 345 348 346 345 345 344 344 338 339 341 342 344 344 343 344 344 344 343 343 343
347 347 348 346 345 347 347 347 347 348 346 345 347 348 347 346 346 348 347 344 346 345 345 346 345 345 344 344 344 343 341 339 339 340 342 342 343 343 343 343 342 343 344
346 346 346 344 342 345 347 348 347 347 348 347 348 347 348 349 348 348 344 347 346 346 347 347 348 347 345 346 346 346 346 347 337 335 341 342 343 342 343 342 341 342 343
346 346 345 343 344 343 343 347 347 348 347 347 347 347 348 350 348 347 347 346 347 347 346 345 347 347 346 346 348 349 349 349 348 340 336 339 339 341 342 341 341 341 342
345 348 347 345 345 345 344 344 345 347 348 348 347 345 349 351 349 346 347 342 345 347 345 346 348 346 346 347 346 348 348 348 349 348 342 338 336 340 341 341 341 342 345
Wind_Speed
13 12 15 15 15 15 13 12 12 12 12 14 14 14 14 15 17 17 17 17 17 17 19 20 21 22 21 20 19 18 19 19 18 18 17 17 17 17 17 17 17 18 18
20 15 16 15 14 13 13 13 14 13 12 14 14 14 14 15 16 15 16 16 17 18 19 20 21 20 19 19 19 18 18 18 18 17 16 17 16 17 17 17 17 17 18
21 17 14 13 13 15 14 14 13 13 14 13 14 15 14 14 15 15 15 15 17 19 19 20 20 19 18 19 18 17 15 15 16 17 18 18 15 15 17 18 17 17 17
22 17 14 14 14 13 14 14 13 12 13 13 13 13 14 15 14 15 15 15 17 18 18 18 18 18 17 16 16 18 17 16 15 17 16 15 14 16 16 15 17 16 16
21 17 16 13 13 12 12 12 13 13 14 13 13 13 13 14 14 14 14 15 16 16 17 17 17 15 13 12 11 11 11 13 16 16 16 16 15 15 15 15 14 16 16
21 18 16 13 13 12 13 13 14 13 12 13 14 14 13 14 14 14 13 14 14 15 15 15 15 12 8 11 9 12 13 13 16 16 16 15 15 14 15 14 13 13 14
21 19 16 14 13 13 12 12 13 13 13 13 13 14 14 14 14 13 13 13 14 14 15 15 14 13 14 18 15 14 11 14 15 15 16 14 14 15 14 14 14 13 13
21 19 17 14 12 12 12 12 13 13 13 13 13 13 14 14 13 13 12 13 13 13 14 15 16 15 15 15 12 10 12 14 15 15 15 13 14 11 13 13 12 12 11
19 19 17 14 12 12 11 10 12 11 12 12 13 13 13 13 11 10 10 12 11 11 14 15 15 12 11 11 10 10 12 14 13 13 13 12 11 11 11 10 10 10 10
19 17 16 15 14 12 11 10 11 11 11 11 12 12 12 11 10 12 11 12 10 9 12 14 10 11 11 11 9 11 10 10 10 12 12 10 10 10 9 9 9 8 8
17 16 15 15 14 14 13 12 11 12 12 12 12 11 13 12 12 12 11 10 9 9 11 11 10 10 11 10 8 7 6 7 8 10 9 7 7 8 7 6 6 6 6
18 17 15 15 15 15 15 15 14 13 13 14 13 13 13 12 12 12 10 10 9 9 9 9 8 8 8 9 6 3 3 3 5 7 7 6 6 6 5 5 5 4 4
21 17 16 16 15 16 16 15 14 13 12 13 13 11 12 12 12 13 12 12 10 11 11 9 8 6 7 7 5 3 4 2 3 5 5 4 4 3 2 2 2 2 3
22 19 17 16 16 16 17 15 15 15 13 9 7 8 11 12 13 12 10 8 7 7 8 6 2 2 8 11 8 3 5 3 3 3 4 3 2 2 1 1 0 1 2
23 20 19 18 17 16 15 14 13 12 10 9 10 9 11 12 10 9 6 4 4 3 2 2 6 7 5 5 10 8 7 4 3 3 3 3 2 1 1 1 2 2 3
23 23 22 20 17 16 14 13 12 11 11 6 7 9 8 6 4 4 2 0 0 2 3 5 5 4 6 9 11 8 7 5 3 2 1 1 0 1 1 2 3 3 4
26 25 24 21 17 16 14 14 11 8 11 8 7 10 6 5 2 4 1 1 1 3 2 2 4 5 5 7 7 7 6 4 3 1 2 2 2 1 2 2 2 3 3
29 27 26 23 20 13 14 15 11 14 12 10 9 8 7 5 4 2 3 4 3 1 2 2 2 5 5 5 4 3 5 6 5 4 4 4 3 3 3 3 3 4 4
32 28 25 23 21 18 17 15 11 14 12 10 9 11 8 5 5 5 4 2 2 1 2 2 1 3 4 2 3 4 5 6 7 8 8 6 5 4 4 4 5 5 5
31 30 24 26 24 22 18 15 14 12 11 10 9 8 8 6 5 4 5 6 4 5 4 2 1 3 4 4 6 9 8 8 10 10 9 8 7 5 5 4 5 5 6
32 31 28 28 24 25 20 17 14 12 10 9 8 7 6 8 7 3 9 7 2 2 3 1 1 2 6 3 6 8 5 7 11 13 12 11 10 6 6 6 7 6 6
37 34 30 28 26 24 22 17 12 11 10 7 8 9 8 7 8 4 6 9 4 3 4 3 4 5 3 3 3 4 3 2 3 8 10 15 12 10 10 9 8 8 8
32 36 34 31 26 24 20 16 11 9 6 12 9 8 9 7 9 7 7 7 6 6 6 3 3 5 3 5 4 1 2 2 3 3 4 9 12 12 12 8 7 7 8
34 36 36 31 27 26 22 17 14 13 11 11 10 8 8 8 9 9 7 7 6 4 5 3 1 3 3 8 2 2 2 1 1 3 3 5 10 13 8 9 8 9 9
33 37 37 34 29 25 23 19 15 12 14 8 11 9 9 9 10 9 10 7 9 4 4 5 4 0 3 5 7 2 4 3 5 2 2 4 6 9 11 11 13 14 13
23 29 35 35 32 27 22 21 18 13 13 11 8 12 13 11 11 11 13 12 9 8 7 7 5 3 1 3 6 9 9 5 6 2 0 4 5 5 8 11 13 12 9
Wind_Direction
153 140 132 126 126 120 120 118 118 117 116 117 114 116 108 106 106 104 103 106 108 103 102 99 98 102 102 103 103 104 102 100 100 99 91 89 84 87 82 84 84 84 77
145 140 136 130 123 122 118 117 116 117 119 123 117 118 115 115 112 113 110 112 114 109 104 104 102 104 105 105 102 104 106 103 101 95 91 89 85 85 86 86 81 85 79
141 139 133 131 125 121 116 114 114 111 115 120 119 119 120 118 115 115 114 118 114 106 107 105 104 104 104 106 106 105 106 104 102 100 92 88 82 83 81 85 84 82 83
142 141 139 131 125 122 118 115 117 115 113 116 118 121 120 118 119 120 116 112 111 109 110 109 106 108 114 117 113 106 109 109 107 105 101 101 93 85 83 83 83 86 86
144 143 137 133 129 124 118 117 115 115 111 113 119 115 116 120 119 118 115 114 112 112 114 115 115 113 119 128 136 137 113 108 112 112 104 97 95 88 91 86 84 81 84
145 145 137 135 128 122 123 121 116 118 117 112 116 122 122 120 117 114 112 111 113 114 116 118 110 105 119 137 117 139 133 123 118 113 106 97 98 99 93 88 87 83 81
148 144 139 137 132 127 123 123 121 116 118 118 116 121 120 118 119 117 121 119 121 121 122 118 109 102 107 129 120 125 127 126 121 113 108 105 100 97 92 92 89 89 87
147 144 140 140 136 130 125 125 123 121 120 118 116 117 119 124 122 125 132 127 121 121 125 119 114 112 115 129 127 120 127 128 122 118 112 102 102 93 98 92 95 91 89
150 145 148 141 134 129 128 124 121 116 114 119 113 117 120 114 120 125 135 125 115 116 127 125 126 123 117 118 117 113 122 124 123 123 112 112 108 106 96 102 98 94 91
156 151 147 145 146 139 130 122 121 113 115 118 117 115 111 113 119 117 115 120 120 118 133 131 129 124 103 110 104 107 115 126 127 121 122 115 113 117 107 100 99 94 89
162 159 155 153 150 143 136 131 122 114 117 117 114 122 125 123 119 119 112 111 119 125 137 143 133 123 122 112 112 115 95 123 131 130 128 127 115 111 107 109 97 96 92
171 171 164 159 155 147 143 137 128 123 123 129 125 121 118 119 117 112 109 113 120 118 132 136 138 132 142 136 116 119 85 128 146 140 134 125 114 107 100 95 93 87 81
170 171 171 165 157 152 149 141 132 129 127 129 127 117 122 129 125 118 111 113 117 117 124 133 148 150 164 187 179 252 283 255 188 162 142 133 114 132 132 93 76 75 63
172 170 169 168 160 156 153 145 133 121 127 141 137 132 136 133 127 118 111 116 114 121 130 137 222 183 214 218 215 241 247 238 193 167 149 163 165 162 163 140 44 38 27
173 173 170 165 161 162 160 154 146 137 129 127 123 130 140 139 129 119 123 114 89 113 139 87 41 79 101 121 178 201 202 196 154 130 161 172 193 192 207 279 303 309 324
179 179 174 168 163 166 167 161 153 148 143 134 160 159 153 171 166 146 135 212 147 122 92 74 51 68 113 127 134 168 193 194 164 144 126 106 233 267 299 301 291 302 312
184 182 180 177 175 180 189 183 173 170 168 151 137 169 173 198 174 189 177 116 129 138 145 68 63 90 135 155 151 190 215 232 232 284 319 338 356 355 4 330 328 331 343
183 182 184 184 188 204 190 195 185 173 170 169 154 159 165 173 194 195 139 122 94 115 132 4 106 78 77 113 143 218 257 264 268 281 298 303 322 3 21 14 356 355 357
184 180 182 190 184 170 161 169 173 169 174 171 165 161 170 172 178 179 194 214 159 324 133 24 48 350 24 42 345 313 298 296 285 279 292 288 291 304 331 347 4 7 4
183 177 178 170 163 157 156 172 180 180 182 174 180 186 198 185 198 187 216 200 215 248 269 343 211 293 326 285 290 284 284 267 267 282 291 285 288 294 299 313 323 335 351
182 180 175 166 163 167 163 162 172 188 199 200 197 205 194 180 191 211 191 194 225 181 198 336 262 313 318 295 307 298 295 255 253 262 273 282 280 285 289 297 310 317 323
184 184 180 176 171 174 176 176 183 194 201 201 208 224 216 195 198 214 191 196 212 171 205 264 313 305 308 357 339 334 354 334 272 260 260 260 275 281 284 294 308 312 316
186 187 186 183 183 178 178 179 186 196 210 202 211 212 202 208 197 215 212 224 249 237 199 198 291 303 333 5 331 267 359 266 322 325 299 247 260 282 290 291 305 313 321
192 194 193 190 185 186 186 188 195 206 209 212 217 207 207 203 191 200 208 212 191 173 174 213 277 344 1 25 87 39 271 308 167 348 319 270 256 276 290 281 294 301 312
191 194 193 187 186 187 194 196 199 211 223 235 228 214 214 207 190 190 209 206 202 203 201 210 219 248 40 33 39 47 77 89 43 124 271 287 259 258 279 284 288 291 295
192 192 192 190 190 191 192 201 205 222 220 219 220 219 203 207 202 199 211 214 223 228 232 199 187 212 71 29 31 42 61 43 17 17 289 282 276 287 282 279 290 292 293